Location: Putah Creek Observatory
(38.7021°N, 122.3865°W)
Time: 16:11:23
(UTC-07:00)

ISS - Pass Details

Date: 22 March 2019
Orbit: 408 x 410 km, 51.6° (Epoch: 19 April)

Event Time Altitude Azimuth Distance (km) Brightness Sun altitude
Rises 20:47:10 0° 245° (WSW) 2,327 0.8 -16.9°
Reaches altitude 10° 20:49:18 10° 252° (WSW) 1,469 -0.2 -17.4°
Maximum altitude 20:52:28 43° 326° (NW) 585 -2.7 -17.9°
Enters shadow 20:54:20 21° 29° (NNE) 987 -2.0 -18.3°
